Location: Pinhey's Point
(45.4411°N, 75.9539°W)
Time: 18:10:33
(UTC-05:00)

Daily predictions for brighter satellites

Satellite Brightness Start Highest point End
(mag) Time Altitude Azimuth Time Altitude Azimuth Time Altitude Azimuth
Cosmos 2208 Rocket 4.0 16:53:04 10° NNW 16:58:18 86° ENE 17:03:34 10° SSE
Cosmos 841 Rocket 4.4 16:55:15 10° N 16:59:47 28° ENE 17:04:16 10° ESE
Cosmos 1484 Rocket 3.2 16:57:25 10° SE 17:01:03 41° ENE 17:04:46 10° N
Cosmos 2100 Rocket 4.3 16:55:03 10° SSW 17:01:16 76° W 17:07:36 10° N
Cosmos 1862 3.3 16:57:47 10° N 17:01:50 89° E 17:05:52 10° S
Cosmos 972 Rocket 4.0 16:56:58 10° N 17:01:50 52° ENE 17:06:37 10° SE
Meteor 1-28 Rocket 4.3 17:00:09 10° NE 17:03:14 24° E 17:06:17 10° SSE
BREEZE-M DEB (TANK) 2.5 17:04:26 10° WNW 17:06:18 30° N 17:08:29 10° ENE
Cosmos 1741 Rocket 4.1 17:01:20 10° SSW 17:06:40 86° WNW 17:12:03 10° NNE
AQUARIUS 4.3 17:04:24 10° SSE 17:08:45 52° ENE 17:13:09 10° N
NOSS 3-2 (C) 4.1 17:03:59 10° WSW 17:09:56 57° NW 17:16:35 10° NE
MSX 4.2 17:04:30 10° S 17:10:15 71° WSW 17:16:03 10° NNW
CZ-4C R/B 3.9 17:05:56 10° NNW 17:11:11 24° NNE 17:16:59 10° ENE
Cosmos 2242 Rocket 3.7 17:10:07 10° S 17:14:36 60° E 17:19:05 10° NNE
Cosmos 1802 Rocket 4.2 17:08:36 10° SSW 17:14:46 76° W 17:20:56 10° N
Cosmos 1733 Rocket 3.1 17:10:24 10° N 17:14:49 62° E 17:19:13 10° SSE
SPOT 3 Rocket 4.5 17:12:38 10° ESE 17:16:55 26° ENE 17:21:11 10° N
Cosmos 2082 Rocket 3.2 17:12:46 10° N 17:17:24 24° NE 17:21:58 10° ESE
Lacrosse 5 2.8 17:14:03 10° W 17:18:51 41° NNW 17:23:40 10° NE
USA 161 3.3 17:19:41 10° NNW 17:21:09 19° WNW 17:22:40 10° SW
CSL-04 Rocket 3.7 17:19:11 10° SSE 17:24:28 85° WSW 17:29:51 10° NNW
Cosmos 1862 Rocket 3.6 17:22:17 10° S 17:26:38 61° E 17:31:03 10° NNE
Cosmos 1816 Rocket 4.4 17:24:10 10° N 17:30:19 79° E 17:36:28 10° SSE
GENESIS II 4.1 17:28:46 10° NW 17:32:43 84° NE 17:36:38 10° SE
Meteor 2-10 Rocket 4.2 17:29:57 10° SSW 17:35:06 60° WNW 17:40:30 10° N
Cosmos 1340 3.0 17:32:35 10° SSW 17:36:20 66° WNW 17:40:07 10° N
Cosmos 1725 Rocket 4.1 17:32:52 10° S 17:39:10 82° W 17:45:28 10° N
METEOR-M 4.2 17:34:17 10° SE 17:39:27 53° ENE 17:44:39 10° N
CENTAUR R/B 2.7 17:34:04 10° SW 17:40:11 81° NW 17:47:15 10° NE
Cosmos 304 Rocket 3.7 17:39:09 10° NNW 17:43:59 76° ENE 17:48:46 10° SSE
Cosmos 1437 2.7 17:42:06 10° SSW 17:45:16 81° W 17:48:28 10° N
Meteor 1-14 Rocket 4.1 17:41:05 10° N 17:46:49 75° ENE 17:52:23 10° SSE
COSMOS 2406 4.4 17:43:11 10° NW 17:48:40 47° WSW 17:54:06 10° S
ERBS 2.8 17:46:12 10° NW 17:49:33 59° SW 17:52:54 10° SE
Okean 1-7 3.9 17:46:17 10° SSE 17:50:02 29° E 17:52:08 20° NE
MONITOR-E 4.5 17:47:26 10° SE 17:50:19 41° ENE 17:53:13 10° N
CZ-2C R/B 3.6 17:45:54 10° NNE 17:50:23 78° ESE 17:54:55 10° S
ERS-2 2.0 17:47:14 10° SSE 17:50:52 65° ENE 17:54:32 10° N
IRS-1A Rocket 4.4 17:45:24 10° SSE 17:51:14 89° WSW 17:57:00 10° NNW
Tsikada Rocket 4.4 17:45:36 10° NNW 17:51:42 65° W 17:57:46 10° S
Cosmos 1844 Rocket 3.3 17:46:55 10° SW 17:52:27 55° WNW 17:58:00 10° NNE
Cosmos 1782 Rocket 3.8 17:51:33 10° N 17:55:41 42° ENE 17:59:49 10° SSE
COSMOS 2455 2.8 17:50:07 10° SSW 17:56:08 89° NW 18:01:48 12° NNE
CZ-4 R/B 4.4 17:52:53 10° SSE 17:57:03 85° ENE 18:01:14 10° NNW
COSMO-SKYMED 1 2.6 17:55:41 10° NNE 17:59:58 54° E 18:04:13 10° S
Timation 1 Rocket 4.3 17:54:25 10° SSW 18:00:25 84° ESE 18:06:12 11° NNE
YAOGAN 1 2.7 17:59:20 10° S 18:03:39 76° WSW 18:08:01 10° NNW
BREEZE-M R/B 2.5 18:02:16 10° WNW 18:04:56 71° SSW 18:07:11 23° SE
Meteor 1-11 Rocket 4.4 18:01:03 10° N 18:06:20 33° ENE 18:10:14 16° SE
Cosmos 44 3.9 18:02:54 10° NNW 18:07:08 34° NE 18:08:00 32° ENE
CZ-4 R/B 2.5 18:04:01 10° S 18:07:44 44° W 18:11:27 10° NNW
Cosmos 1763 Rocket 3.9 18:03:03 10° NNW 18:08:15 65° WSW 18:13:20 10° S
USA 116 4.3 18:04:16 10° N 18:08:58 69° WNW 18:13:03 10° SSW
Cosmos 2221 Rocket 3.8 18:07:31 10° SSE 18:11:42 44° E 18:13:08 32° NE
FENGYUN 3A 3.6 18:09:15 10° SSE 18:14:35 66° ENE 18:19:58 10° N
Cosmos 2297 4.1 18:11:58 10° S 18:17:15 40° ESE 18:18:47 34° ENE
MOS 1 4.3 18:11:59 10° SSE 18:17:42 83° WSW 18:23:27 10° NNW
ALOS 2.1 18:13:30 10° SSE 18:18:09 72° ENE 18:22:50 10° N
Cosmos 1833 Rocket 2.6 18:12:39 10° NNW 18:18:15 62° ENE 18:23:10 13° SE
SL-27 R/B 2.4 18:19:33 10° NNW 18:22:53 76° WSW 18:25:00 21° SSE
Cosmos 2278 Rocket 2.3 18:18:31 10° SSW 18:24:11 80° WNW 18:28:39 17° NNE
Cosmos 1503 Rocket 4.1 18:20:12 10° S 18:25:19 53° ESE 18:26:49 40° ENE
Cosmos 1703 Rocket 3.6 18:21:23 10° S 18:25:52 84° W 18:30:18 10° N
Cosmos 1633 2.8 18:26:31 10° NNW 18:30:11 70° W 18:33:49 10° S
Okean 2 Rocket 3.0 18:27:16 10° N 18:31:48 66° E 18:36:17 10° SSE
Cosmos 1464 Rocket 3.8 18:27:16 10° S 18:33:21 74° E 18:39:30 10° NNE
Meteor 2-20 4.4 18:27:28 10° N 18:33:30 58° ENE 18:39:27 10° SSE
DMSP B5D1-3 4.4 18:31:12 19° NNE 18:34:58 73° ESE 18:40:07 10° S
Cosmos 836 Rocket 4.4 18:33:00 10° NNW 18:38:17 88° ENE 18:43:34 10° SSE
USA 234 3.2 18:36:48 37° ENE 18:39:42 79° SE 18:46:15 10° SW
Cosmos 540 Rocket 3.4 18:35:30 10° NNW 18:40:43 85° WSW 18:45:53 10° SSE
EO 1 Del DPAF 4.1 18:41:40 22° N 18:43:51 47° WNW 18:47:31 10° SW
Cosmos 1606 3.3 18:40:13 10° SSW 18:43:55 55° W 18:45:11 36° NNW
SKYMED 2 4.5 18:43:59 11° N 18:47:59 47° WNW 18:52:09 10° SW
Meteor 2-6 Rocket 4.1 18:45:38 10° S 18:51:04 86° W 18:55:29 17° N
Cosmos 1782 3.7 18:47:53 10° SSW 18:51:48 48° WNW 18:53:34 28° NNW
CZ-4C R/B 2.8 18:54:07 10° NW 19:01:06 63° NE 19:02:17 56° E
Cosmos 2082 Rocket 2.5 18:56:19 10° NNW 19:01:58 64° WSW 19:05:55 20° S
Cosmos 1354 Rocket 4.0 18:57:20 10° SSW 19:02:37 77° WNW 19:03:32 60° N
Lacrosse 5 3.5 18:58:59 10° WNW 19:02:57 22° N 19:03:04 22° N
FengYun 1-2 T 4.2 19:03:36 19° S 19:07:36 81° WSW 19:13:13 10° NNW
Cosmos 44 Rocket 3.8 19:06:34 10° NW 19:10:24 55° NW 19:10:24 55° NW
Meteor 1-27 Rocket 3.7 19:09:05 10° S 19:14:59 86° W 19:15:39 72° N
Meteor 2-20 Rocket 4.3 19:10:12 10° N 19:16:21 87° W 19:17:33 60° S
CENTAUR R/B 4.2 19:26:34 10° W 19:32:02 27° NNW 19:34:36 22° N
Timation 2 Rocket 4.3 19:37:50 10° NNW 19:43:47 66° WNW 19:43:47 66° WNW
USA 234 4.4 20:24:10 38° WNW 20:24:10 38° WNW 20:28:36 10° W
CZ-4C R/B 4.3 20:43:01 10° NW 20:47:31 32° W 20:47:31 32° W
